Weather History for KAEL - April, 2013

Change the Weather History Date:

Monday, April 8, 2013

  Actual Average Record
Temperature  
Mean Temperature 50 °F -  
Max Temperature 59 °F 50 °F 69 °F (2005)
Min Temperature 42 °F 32 °F 6 °F (1997)
Degree Days  
Heating Degree Days 14    
Moisture  
Dew Point 48 °F    
Average Humidity 93    
Maximum Humidity 100    
Minimum Humidity 77    
Precipitation  
Precipitation 0.09 in - - ()
Sea Level Pressure  
Sea Level Pressure 29.76 in    
Wind  
Wind Speed 8 mph (ENE)    
Max Wind Speed 21 mph    
Max Gust Speed 32 mph    
Visibility 4 miles    
Events Fog , Rain    
Averages and records for this station are not official NWS values.
T = Trace of Precipitation, MM = Missing Value Source: NWS Daily Summary

Daily Weather History Graph

Daily Weather History Graph

Search for Another Location

Airport or City:

Trip Planner

Search our weather history database for the weather conditions in past years. The results will help you decide how hot, cold, wet, or windy it might be!

Date:

Astronomy

Apr. 08, 2013 Rise Set
Actual Time 6:42 AM CDT 7:48 PM CDT
Civil Twilight 6:12 AM CDT 8:18 PM CDT
Nautical Twilight 5:37 AM CDT 8:53 PM CDT
Astronomical Twilight 5:00 AM CDT 9:30 PM CDT
Moon 5:35 AM CDT (4/8) 6:22 PM CDT (4/8)
Length of Visible Light 14h 05m
Length of Day
13h 06m
Waning Crescent, 3% of the Moon is Illuminated
Apr 8
Waning Crescent
Apr 10
New
Apr 18
First Quarter
Apr 25
Full
May 2
Last Quarter

Hourly Weather History & Observations

Time (CDT) Temp. Windchill Dew Point Humidity Pressure Visibility Wind Dir Wind Speed Gust Speed Precip Events Conditions
12:12 AM 46.4 °F 43.5 °F 44.6 °F 93% 29.75 in 5.0 mi NNW 5.8 mph - N/A Rain Light Rain
12:32 AM 46.4 °F 44.3 °F 44.6 °F 93% 29.74 in 5.0 mi NE 4.6 mph - 0.02 in Rain Rain
12:52 AM 46.4 °F 42.9 °F 44.6 °F 93% 29.72 in 5.0 mi East 6.9 mph - N/A Rain Light Rain
1:12 AM 46.4 °F 41.5 °F 44.6 °F 93% 29.70 in 7.0 mi East 10.4 mph - N/A Rain Light Rain
1:32 AM 46.4 °F 41.9 °F 42.8 °F 87% 29.70 in 7.0 mi ESE 9.2 mph - N/A   Mostly Cloudy
1:52 AM 46.4 °F 41.9 °F 42.8 °F 87% 29.70 in 7.0 mi East 9.2 mph - N/A   Mostly Cloudy
2:12 AM 46.4 °F 42.9 °F 42.8 °F 87% 29.71 in 7.0 mi ESE 6.9 mph - N/A Rain Light Rain
2:32 AM 46.4 °F 40.4 °F 42.8 °F 87% 29.67 in 7.0 mi East 13.8 mph - N/A   Overcast
2:52 AM 46.4 °F 38.7 °F 46.4 °F 100% 29.65 in 7.0 mi SE 20.7 mph 32.2 mph 0.02 in Rain Rain
3:12 AM 46.4 °F 41.9 °F 46.4 °F 100% 29.66 in 5.0 mi SE 9.2 mph - 0.07 in Rain Light Rain
3:32 AM 46.4 °F 41.9 °F 46.4 °F 100% 29.65 in 4.0 mi SE 9.2 mph - 0.07 in Rain Light Rain
3:52 AM 46.4 °F 41.5 °F 46.4 °F 100% 29.64 in 4.0 mi SE 10.4 mph - N/A   Overcast
4:12 AM 46.4 °F 41.5 °F 46.4 °F 100% 29.64 in 4.0 mi SE 10.4 mph - N/A   Overcast
4:32 AM 46.4 °F 42.9 °F 46.4 °F 100% 29.63 in 5.0 mi SSE 6.9 mph - N/A   Overcast
4:52 AM 46.4 °F 43.5 °F 46.4 °F 100% 29.63 in 5.0 mi SE 5.8 mph - N/A   Mostly Cloudy
5:12 AM 46.4 °F 44.3 °F 46.4 °F 100% 29.63 in 4.0 mi SE 4.6 mph - N/A   Clear
5:32 AM 46.4 °F 43.5 °F 46.4 °F 100% 29.63 in 4.0 mi SE 5.8 mph - N/A   Clear
5:52 AM 44.6 °F 43.1 °F 44.6 °F 100% 29.64 in 4.0 mi SSE 3.5 mph - N/A   Clear
6:13 AM 44.6 °F 41.4 °F 44.6 °F 100% 29.64 in 4.0 mi ESE 5.8 mph - N/A   Mostly Cloudy
6:32 AM 44.6 °F - 44.6 °F 100% 29.65 in 4.0 mi Calm Calm - N/A   Scattered Clouds
6:52 AM 44.6 °F - 44.6 °F 100% 29.66 in 3.0 mi Calm Calm - N/A   Scattered Clouds
7:12 AM 44.6 °F 42.2 °F 44.6 °F 100% 29.67 in 2.5 mi SE 4.6 mph - N/A   Scattered Clouds
7:32 AM 44.6 °F 40.7 °F 44.6 °F 100% 29.67 in 3.0 mi SSE 6.9 mph - N/A   Overcast
7:52 AM 46.4 °F 45.2 °F 46.4 °F 100% 29.68 in 0.5 mi SE 3.5 mph - N/A Fog Fog
8:12 AM 46.4 °F - 46.4 °F 100% 29.68 in 0.2 mi Calm Calm - N/A Fog Fog
8:32 AM 46.4 °F 44.3 °F 46.4 °F 100% 29.68 in 0.2 mi SE 4.6 mph - N/A Fog Fog
8:52 AM 46.4 °F - 46.4 °F 100% 29.68 in 0.2 mi Calm Calm - N/A Fog Fog
9:12 AM 46.4 °F 45.2 °F 46.4 °F 100% 29.68 in 0.2 mi SE 3.5 mph - N/A Fog Fog
9:33 AM 48.2 °F - 48.2 °F 100% 29.69 in 0.2 mi Calm Calm - N/A Fog Fog
9:52 AM 48.2 °F - 48.2 °F 100% 29.70 in 0.2 mi SE 3.5 mph - N/A Fog Fog
10:12 AM 48.2 °F - 48.2 °F 100% 29.71 in 0.2 mi South 3.5 mph - N/A Fog Fog
10:32 AM 48.2 °F - 48.2 °F 100% 29.71 in 0.2 mi NNE 4.6 mph - N/A Fog Fog
10:52 AM 48.2 °F - 48.2 °F 100% 29.72 in 1.5 mi Calm Calm - N/A   Overcast
11:12 AM 50.0 °F - 50.0 °F 100% 29.73 in 1.8 mi Calm Calm - N/A   Overcast
11:32 AM 50.0 °F - 50.0 °F 100% 29.75 in 1.8 mi Calm Calm - N/A   Overcast
11:52 AM 50.0 °F - 50.0 °F 100% 29.75 in 2.5 mi Calm Calm - N/A   Overcast
12:12 PM 51.8 °F - 51.8 °F 100% 29.74 in 3.0 mi NNE 4.6 mph - N/A   Overcast
12:32 PM 51.8 °F - 51.8 °F 100% 29.75 in 4.0 mi Calm Calm - N/A   Scattered Clouds
12:52 PM 53.6 °F - 53.6 °F 100% 29.74 in 4.0 mi North 6.9 mph - N/A   Scattered Clouds
1:12 PM 53.6 °F - 51.8 °F 94% 29.75 in 5.0 mi NNW 4.6 mph - N/A   Clear
1:32 PM 53.6 °F - 51.8 °F 94% 29.75 in 5.0 mi NNE 8.1 mph - N/A   Scattered Clouds
1:52 PM 55.4 °F - 51.8 °F 88% 29.75 in 5.0 mi NNE 8.1 mph - N/A   Scattered Clouds
2:12 PM 57.2 °F - 51.8 °F 82% 29.75 in 5.0 mi North 5.8 mph - N/A   Haze
2:33 PM 57.2 °F - 51.8 °F 82% 29.76 in 7.0 mi NE 5.8 mph - N/A   Scattered Clouds
2:52 PM 59.0 °F - 51.8 °F 77% 29.76 in 7.0 mi ENE 8.1 mph - N/A   Scattered Clouds
3:12 PM 59.0 °F - 51.8 °F 77% 29.77 in 7.0 mi NE 8.1 mph - N/A   Clear
3:32 PM 57.2 °F - 51.8 °F 82% 29.77 in 7.0 mi NNE 8.1 mph - N/A   Scattered Clouds
3:52 PM 57.2 °F - 51.8 °F 82% 29.78 in 7.0 mi NNE 8.1 mph - N/A   Scattered Clouds
4:12 PM 57.2 °F - 51.8 °F 82% 29.78 in 7.0 mi NE 6.9 mph - N/A   Scattered Clouds
4:32 PM 57.2 °F - 51.8 °F 82% 29.77 in 7.0 mi NE 12.7 mph - N/A   Scattered Clouds
4:52 PM 57.2 °F - 51.8 °F 82% 29.79 in 7.0 mi ENE 10.4 mph - N/A   Scattered Clouds
5:12 PM 57.2 °F - 51.8 °F 82% 29.80 in 7.0 mi ENE 9.2 mph - N/A   Scattered Clouds
5:32 PM 57.2 °F - 51.8 °F 82% 29.81 in 7.0 mi NE 9.2 mph - N/A   Scattered Clouds
5:52 PM 57.2 °F - 51.8 °F 82% 29.81 in 7.0 mi ENE 10.4 mph - N/A   Scattered Clouds
6:12 PM 57.2 °F - 51.8 °F 82% 29.82 in 7.0 mi ENE 10.4 mph - N/A   Scattered Clouds
6:32 PM 55.4 °F - 51.8 °F 88% 29.83 in 7.0 mi ENE 11.5 mph - N/A   Clear
6:52 PM 55.4 °F - 50.0 °F 82% 29.84 in 7.0 mi NE 10.4 mph 16.1 mph N/A   Scattered Clouds
7:11 PM 53.6 °F - 50.0 °F 88% 29.85 in 5.0 mi NNE 12.7 mph - N/A   Scattered Clouds
7:32 PM 51.8 °F - 48.2 °F 88% 29.86 in 4.0 mi NNE 13.8 mph 18.4 mph N/A   Mostly Cloudy
7:52 PM 51.8 °F - 48.2 °F 88% 29.87 in 5.0 mi NNE 17.3 mph 21.9 mph N/A   Overcast
8:13 PM 51.8 °F - 46.4 °F 82% 29.88 in 7.0 mi NNE 12.7 mph - N/A   Overcast
8:32 PM 50.0 °F - 46.4 °F 87% 29.88 in 7.0 mi NNE 12.7 mph - N/A   Overcast
8:52 PM 48.2 °F - 46.4 °F 93% 29.90 in 5.0 mi NNE 16.1 mph - N/A   Overcast
9:13 PM 48.2 °F - 46.4 °F 93% 29.91 in 5.0 mi NNE 12.7 mph - N/A   Overcast
9:32 PM 46.4 °F 40.1 °F 44.6 °F 93% 29.92 in 4.0 mi NNE 15.0 mph - N/A   Overcast
9:52 PM 46.4 °F 40.4 °F 44.6 °F 93% 29.92 in 4.0 mi NE 13.8 mph 21.9 mph N/A   Overcast
10:13 PM 46.4 °F 40.1 °F 44.6 °F 93% 29.94 in 4.0 mi NE 15.0 mph - N/A   Overcast
10:32 PM 44.6 °F 37.4 °F 44.6 °F 100% 29.94 in 3.0 mi NE 16.1 mph - N/A   Mostly Cloudy
10:52 PM 44.6 °F 37.4 °F 42.8 °F 93% 29.95 in 2.5 mi NE 16.1 mph 20.7 mph N/A   Overcast
11:13 PM 42.8 °F 35.4 °F 42.8 °F 100% 29.95 in 2.5 mi NE 15.0 mph - N/A   Overcast
11:32 PM 42.8 °F 34.5 °F 42.8 °F 100% 29.95 in 3.0 mi NE 18.4 mph 21.9 mph N/A   Overcast
11:52 PM 42.8 °F 34.5 °F 41.0 °F 93% 29.96 in 2.5 mi NE 18.4 mph 21.9 mph N/A   Overcast